Regional Weather Roundup
Issued by NWS Goodland, KS

Home | Current Version | Previous Version | Text Only | Print | Product List | Glossary Off
Versions: 1 2 3 4 5 6 7 8 9 10 11 12 13 14 15 16 17 18 19 20 21 22 23 24 25 26 27 28 29 30 31 32 33 34 35 36 37 38 39 40 41 42 43 44 45 46 47 48 49 50

111
ASUS43 KGLD 260359
RWRGLD

GOODLAND FORECAST AREA HOURLY WEATHER ROUNDUP
NATIONAL WEATHER SERVICE GOODLAND KS
900 PM MST SAT FEB 25 2017

...OFFICIAL OBSERVATIONS...

CITY           SKY/WX    TMP DP  RH WIND       PRES   REMARKS
GOODLAND KS    CLOUDY    19  10  68 N3        29.85R
HILL CITY KS   MOCLDY    29  11  47 N5        29.91R
IMPERIAL NEB   CLOUDY    30  16  56 S7        29.85F
MCCOOK NEB     CLOUDY    27  14  58 W7        29.89R
AKRON CO       CLOUDY    24  16  71 SE8       29.82S
BURLINGTON CO  CLOUDY    23   5  46 E6        29.84R
LIMON CO       CLEAR     12   6  77 S8        29.80S
$$

...UNOFFICIAL OBSERVATIONS...

CITY           SKY/WX    TMP DP  RH WIND       PRES   REMARKS
LENORA KS        N/A     29  32 100 CALM        N/A
SHARON SPRINGS   N/A     20   5  52 CALM        N/A
TRENTON NEB      N/A     29  32 100 CALM        N/A
KIT CARSON CO    N/A     22   2  42 MISG        N/A
YUMA CO        FAIR      25  18  74 CALM      29.84S
$$




USA.gov is the U.S. government's official web portal to all federal, state and local government web resources and services.